TimeCDT,TemperatureF,Dew PointF,Humidity,Sea Level PressureIn,VisibilityMPH,Wind Direction,Wind SpeedMPH,Gust SpeedMPH,PrecipitationIn,Events,Conditions,WindDirDegrees,DateUTC
12:15 AM,19.4,8.6,63,30.46,10.0,NNW,16.1,-,N/A,,Clear,330,2014-03-23 05:15:00
12:35 AM,19.4,8.6,63,30.46,10.0,NNW,15.0,-,N/A,,Clear,340,2014-03-23 05:35:00
12:55 AM,19.4,10.4,68,30.47,10.0,North,15.0,-,N/A,,Mostly Cloudy,350,2014-03-23 05:55:00
1:15 AM,17.6,8.6,68,30.47,10.0,NNW,17.3,-,N/A,,Overcast,340,2014-03-23 06:15:00
1:35 AM,17.6,8.6,68,30.47,10.0,North,15.0,-,N/A,,Overcast,350,2014-03-23 06:35:00
1:55 AM,17.6,8.6,68,30.48,10.0,North,13.8,19.6,N/A,,Overcast,350,2014-03-23 06:55:00
2:15 AM,17.6,6.8,63,30.48,10.0,North,13.8,20.7,N/A,,Overcast,350,2014-03-23 07:15:00
2:35 AM,17.6,6.8,63,30.48,10.0,North,13.8,20.7,N/A,,Mostly Cloudy,350,2014-03-23 07:35:00
2:55 AM,15.8,6.8,68,30.48,10.0,North,13.8,-,N/A,,Partly Cloudy,350,2014-03-23 07:55:00
3:15 AM,15.8,6.8,68,30.48,10.0,North,15.0,-,N/A,,Clear,350,2014-03-23 08:15:00
3:35 AM,15.8,6.8,68,30.48,10.0,NNW,12.7,-,N/A,,Clear,340,2014-03-23 08:35:00
3:55 AM,15.8,6.8,68,30.48,10.0,NNW,15.0,-,N/A,,Scattered Clouds,340,2014-03-23 08:55:00
4:15 AM,15.8,6.8,68,30.48,10.0,North,12.7,-,N/A,,Scattered Clouds,350,2014-03-23 09:15:00
4:35 AM,15.8,5.0,62,30.48,10.0,North,10.4,-,N/A,,Clear,350,2014-03-23 09:35:00
4:55 AM,15.8,6.8,68,30.48,10.0,North,8.1,-,N/A,,Scattered Clouds,350,2014-03-23 09:55:00
5:15 AM,14.0,6.8,73,30.48,10.0,North,6.9,-,N/A,,Scattered Clouds,350,2014-03-23 10:15:00
5:35 AM,14.0,6.8,73,30.49,10.0,North,5.8,-,N/A,,Partly Cloudy,350,2014-03-23 10:35:00
5:55 AM,14.0,6.8,73,30.49,10.0,NNW,6.9,-,N/A,,Clear,340,2014-03-23 10:55:00
6:15 AM,14.0,6.8,73,30.49,10.0,NNW,6.9,-,N/A,,Clear,330,2014-03-23 11:15:00
6:35 AM,14.0,6.8,73,30.49,10.0,NNW,5.8,-,N/A,,Clear,340,2014-03-23 11:35:00
6:55 AM,14.0,6.8,73,30.49,10.0,North,9.2,-,N/A,,Clear,350,2014-03-23 11:55:00
7:15 AM,14.0,6.8,73,30.49,10.0,North,8.1,-,N/A,,Clear,350,2014-03-23 12:15:00
7:35 AM,14.0,6.8,73,30.50,10.0,North,8.1,-,N/A,,Clear,350,2014-03-23 12:35:00
7:55 AM,14.0,5.0,67,30.50,10.0,NNW,8.1,-,N/A,,Clear,340,2014-03-23 12:55:00
8:15 AM,14.0,6.8,73,30.50,10.0,NNW,8.1,-,N/A,,Clear,330,2014-03-23 13:15:00
8:35 AM,14.0,5.0,67,30.50,10.0,NNW,9.2,-,N/A,,Clear,340,2014-03-23 13:35:00
8:55 AM,15.8,5.0,62,30.50,10.0,NNW,9.2,-,N/A,,Clear,340,2014-03-23 13:55:00
9:15 AM,15.8,5.0,62,30.50,10.0,North,6.9,-,N/A,,Partly Cloudy,350,2014-03-23 14:15:00
9:35 AM,15.8,5.0,62,30.50,10.0,Variable,6.9,-,N/A,,Clear,0,2014-03-23 14:35:00
9:55 AM,15.8,5.0,62,30.50,10.0,NNW,8.1,-,N/A,,Clear,330,2014-03-23 14:55:00
10:15 AM,17.6,3.2,53,30.51,10.0,NNW,11.5,-,N/A,,Clear,340,2014-03-23 15:15:00
10:35 AM,17.6,5.0,58,30.50,10.0,NNW,12.7,-,N/A,,Clear,340,2014-03-23 15:35:00
10:55 AM,17.6,5.0,58,30.49,10.0,North,9.2,16.1,N/A,,Clear,350,2014-03-23 15:55:00
11:15 AM,17.6,5.0,58,30.49,10.0,North,6.9,15.0,N/A,,Partly Cloudy,360,2014-03-23 16:15:00
11:35 AM,17.6,5.0,58,30.50,10.0,NW,9.2,17.3,N/A,,Partly Cloudy,310,2014-03-23 16:35:00
11:55 AM,19.4,6.8,58,30.49,10.0,North,5.8,16.1,N/A,,Mostly Cloudy,350,2014-03-23 16:55:00
12:15 PM,19.4,5.0,54,30.49,10.0,WNW,9.2,-,N/A,,Mostly Cloudy,300,2014-03-23 17:15:00
12:35 PM,19.4,6.8,58,30.49,10.0,NNW,12.7,-,N/A,,Scattered Clouds,330,2014-03-23 17:35:00
12:55 PM,19.4,6.8,58,30.48,10.0,NNW,10.4,-,N/A,,Mostly Cloudy,340,2014-03-23 17:55:00
1:15 PM,21.2,8.6,58,30.47,10.0,North,9.2,-,N/A,,Overcast,360,2014-03-23 18:15:00
1:30 PM,21.2,10.4,63,30.47,10.0,NNW,8.1,-,N/A,,Mostly Cloudy,340,2014-03-23 18:30:00
1:55 PM,21.2,8.6,58,30.45,10.0,NW,9.2,20.7,N/A,,Mostly Cloudy,310,2014-03-23 18:55:00
2:15 PM,23.0,8.6,54,30.46,10.0,NW,12.7,18.4,N/A,,Mostly Cloudy,310,2014-03-23 19:15:00
2:35 PM,23.0,8.6,54,30.45,10.0,NW,11.5,-,N/A,,Mostly Cloudy,320,2014-03-23 19:35:00
2:55 PM,23.0,8.6,54,30.44,10.0,NNW,11.5,-,N/A,,Mostly Cloudy,330,2014-03-23 19:55:00
3:15 PM,23.0,8.6,54,30.43,10.0,NW,11.5,17.3,N/A,,Mostly Cloudy,320,2014-03-23 20:15:00
3:35 PM,23.0,8.6,54,30.43,10.0,WNW,6.9,15.0,N/A,,Mostly Cloudy,290,2014-03-23 20:35:00
3:55 PM,23.0,10.4,59,30.42,10.0,NW,11.5,-,N/A,,Overcast,310,2014-03-23 20:55:00
4:15 PM,23.0,8.6,54,30.41,10.0,NW,11.5,-,N/A,,Overcast,320,2014-03-23 21:15:00
4:35 PM,23.0,8.6,54,30.41,10.0,WNW,8.1,-,N/A,,Overcast,290,2014-03-23 21:35:00
4:55 PM,23.0,8.6,54,30.41,10.0,WNW,10.4,-,N/A,,Overcast,290,2014-03-23 21:55:00
5:15 PM,24.8,10.4,54,30.40,10.0,WNW,10.4,-,N/A,,Overcast,290,2014-03-23 22:15:00
5:35 PM,24.8,10.4,54,30.39,10.0,WNW,8.1,-,N/A,,Overcast,300,2014-03-23 22:35:00
5:55 PM,24.8,10.4,54,30.38,10.0,WNW,10.4,17.3,N/A,,Mostly Cloudy,290,2014-03-23 22:55:00
6:15 PM,24.8,8.6,50,30.38,10.0,NNW,8.1,-,N/A,,Scattered Clouds,340,2014-03-23 23:15:00
6:35 PM,23.0,8.6,54,30.37,10.0,Calm,Calm,-,N/A,,Scattered Clouds,0,2014-03-23 23:35:00
6:55 PM,23.0,8.6,54,30.37,10.0,WNW,4.6,-,N/A,,Mostly Cloudy,290,2014-03-23 23:55:00
7:15 PM,23.0,10.4,59,30.37,10.0,NW,4.6,-,N/A,,Mostly Cloudy,310,2014-03-24 00:15:00
7:35 PM,23.0,10.4,59,30.36,10.0,Calm,Calm,-,N/A,,Partly Cloudy,0,2014-03-24 00:35:00
7:55 PM,23.0,12.2,63,30.36,10.0,NE,5.8,-,N/A,,Clear,50,2014-03-24 00:55:00
8:15 PM,23.0,12.2,63,30.36,10.0,NE,3.5,-,N/A,,Mostly Cloudy,50,2014-03-24 01:15:00
8:35 PM,23.0,12.2,63,30.36,10.0,Calm,Calm,-,N/A,,Partly Cloudy,0,2014-03-24 01:35:00
8:55 PM,23.0,10.4,59,30.36,10.0,East,3.5,-,N/A,,Partly Cloudy,80,2014-03-24 01:55:00
9:15 PM,23.0,10.4,59,30.36,10.0,East,3.5,-,N/A,,Mostly Cloudy,90,2014-03-24 02:15:00
9:35 PM,21.2,12.2,68,30.36,10.0,East,4.6,-,N/A,,Overcast,100,2014-03-24 02:35:00
9:55 PM,21.2,14.0,74,30.36,10.0,East,4.6,-,N/A,,Overcast,100,2014-03-24 02:55:00
10:15 PM,21.2,14.0,74,30.36,10.0,SE,4.6,-,N/A,,Overcast,140,2014-03-24 03:15:00
10:35 PM,21.2,12.2,68,30.37,10.0,SE,4.6,-,N/A,,Overcast,130,2014-03-24 03:35:00
10:55 PM,21.2,14.0,74,30.36,10.0,SE,4.6,-,N/A,,Overcast,140,2014-03-24 03:55:00
11:15 PM,21.2,14.0,74,30.36,10.0,SE,5.8,-,N/A,,Overcast,140,2014-03-24 04:15:00
11:35 PM,21.2,14.0,74,30.36,10.0,SSE,4.6,-,N/A,,Mostly Cloudy,150,2014-03-24 04:35:00
11:55 PM,23.0,14.0,68,30.36,10.0,South,6.9,-,N/A,,Scattered Clouds,180,2014-03-24 04:55:00